This is the latest recevied weather packets stored in our database for station/object NC4J. If no packets are shown the sender has not sent any weather packets the latest 10 day(s).
| Time | Temp. | Humidity | Pressure | Rain* | Wind** | Luminosity | Snow |
|---|---|---|---|---|---|---|---|
| 1777912660 | 20° C | 34% | 1017.6 hPa | 0 mm | - | 279 W/m² | - |
| 1777912356 | 19.44° C | 36% | 1017.9 hPa | 0 mm | - | 134 W/m² | - |
| 1777912052 | 19.44° C | 35% | 1017.9 hPa | 0 mm | - | 147 W/m² | - |
| 1777911748 | 19.44° C | 35% | 1017.9 hPa | 0 mm | - | 330 W/m² | - |
| 1777911445 | 19.44° C | 35% | 1018.1 hPa | 0 mm | - | 233 W/m² | - |
| 1777911142 | 19.44° C | 37% | 1018.2 hPa | 0 mm | - | 517 W/m² | - |
| 1777910840 | 18.89° C | 37% | 1018.1 hPa | 0 mm | - | 321 W/m² | - |
| 1777910536 | 18.89° C | 38% | 1018.4 hPa | 0 mm | - | 140 W/m² | - |
| 1777910233 | 18.89° C | 35% | 1018.2 hPa | 0 mm | - | 379 W/m² | - |
| 1777909930 | 18.89° C | 36% | 1018.3 hPa | 0 mm | - | 309 W/m² | - |
| 1777909627 | 18.89° C | 36% | 1018.4 hPa | 0 mm | - | 282 W/m² | - |
| 1777909324 | 18.33° C | 39% | 1018.4 hPa | 0 mm | - | 69 W/m² | - |
| 1777909022 | 17.78° C | 37% | 1018.5 hPa | 0 mm | - | 57 W/m² | - |
| 1777908720 | 17.78° C | 38% | 1018.5 hPa | 0 mm | - | 55 W/m² | - |
| 1777908416 | 17.78° C | 34% | 1018.7 hPa | 0 mm | - | 54 W/m² | - |
| 1777908113 | 17.78° C | 35% | 1018.7 hPa | 0 mm | - | 67 W/m² | - |
| 1777907809 | 17.22° C | 34% | 1018.8 hPa | 0 mm | - | 47 W/m² | - |
| 1777907504 | 17.22° C | 36% | 1018.9 hPa | 0 mm | - | 45 W/m² | - |
| 1777907201 | 16.67° C | 38% | 1018.9 hPa | 0 mm | - | 81 W/m² | - |
| 1777906898 | 16.67° C | 35% | 1018.9 hPa | 0 mm | - | 41 W/m² | - |
| 1777906596 | 16.11° C | 40% | 1018.9 hPa | 0 mm | - | 233 W/m² | - |
| 1777906291 | 15.56° C | 41% | 1018.9 hPa | 0 mm | - | 56 W/m² | - |
| 1777905988 | 15.56° C | 43% | 1019.1 hPa | 0 mm | - | 42 W/m² | - |
| 1777905685 | 15° C | 43% | 1019.1 hPa | 0 mm | - | 78 W/m² | - |
| 1777905381 | 15° C | 45% | 1019.1 hPa | 0 mm | - | 40 W/m² | - |
* Rain latest hour (hover to see other rain measurements)
** Current wind speed in m/s (hover to see current wind gust speed)